McComb, MS

11:57 PM CDT on March 25, 2017 (GMT -0500)
McComb-Pike County-Lewis

Weather History for KMCB - August, 2014

Change the Weather History Date:

Sunday, August 10, 2014

  Actual Average Record
Temperature  
Mean Temperature 81 °F -  
Max Temperature 91 °F 91 °F 100 °F (2015)
Min Temperature 72 °F 69 °F 57 °F (1976)
Cooling Degree Days 16    
Growing Degree Days 31 (Base 50)    
Moisture  
Dew Point 72 °F    
Average Humidity 85    
Maximum Humidity 97    
Minimum Humidity 57    
Precipitation  
Precipitation 0.10 in - - ()
Sea Level Pressure  
Sea Level Pressure 30.02 in    
Wind  
Wind Speed 4 mph (West)    
Max Wind Speed 18 mph    
Max Gust Speed 25 mph    
Visibility 8 miles    
Events Rain , Thunderstorm    
Averages and records for this station are not official NWS values.
T = Trace of Precipitation, MM = Missing Value Source: NWS Daily Summary

Daily Weather History Graph

Daily Weather History Graph

Search for Another Location

Airport or City:

Trip Planner

Search our weather history database for the weather conditions in past years. The results will help you decide how hot, cold, wet, or windy it might be!

Date:

Astronomy

Aug. 10, 2014 Rise Set
Actual Time 6:24 AM CDT 7:49 PM CDT
Civil Twilight 5:58 AM CDT 8:15 PM CDT
Nautical Twilight 5:27 AM CDT 8:45 PM CDT
Astronomical Twilight 4:55 AM CDT 9:17 PM CDT
Moon 7:41 PM CDT (8/10) 6:13 AM CDT (8/10)
Length of Visible Light 14h 16m
Length of Day
13h 25m
Full, 100% of the Moon is Illuminated
Aug 10
Full
Aug 10
Full
Aug 17
Last Quarter
Aug 25
New
Sep 2
First Quarter

Hourly Weather History & Observations

Time (CDT) Temp. Heat Index Dew Point Humidity Pressure Visibility Wind Dir Wind Speed Gust Speed Precip Events Conditions
12:53 AM 73.9 °F - 71.1 °F 91% 30.00 in 10.0 mi Calm Calm - N/A   Clear
1:29 AM 73.0 °F - 71.1 °F 93% 30.02 in 8.0 mi SW 3.5 mph - N/A   Partly Cloudy
1:44 AM 73.0 °F - 71.1 °F 93% 30.01 in 8.0 mi South 4.6 mph - N/A   Mostly Cloudy
1:53 AM 73.0 °F - 71.1 °F 93% 29.98 in 8.0 mi South 6.9 mph - N/A   Mostly Cloudy
2:08 AM 73.0 °F - 71.1 °F 93% 29.99 in 9.0 mi South 4.6 mph - N/A   Scattered Clouds
2:53 AM 73.0 °F - 71.1 °F 93% 29.97 in 10.0 mi West 3.5 mph - N/A   Clear
4:53 AM 72.0 °F - 70.0 °F 93% 29.99 in 6.0 mi Calm Calm - N/A   Partly Cloudy
5:44 AM 73.0 °F - 71.1 °F 93% 30.03 in 7.0 mi Calm Calm - N/A   Scattered Clouds
5:53 AM 73.0 °F - 71.1 °F 93% 30.02 in 7.0 mi Calm Calm - N/A   Scattered Clouds
6:05 AM 73.0 °F - 71.1 °F 93% 30.03 in 8.0 mi Calm Calm - N/A   Mostly Cloudy
6:32 AM 72.0 °F - 71.1 °F 97% 30.05 in 7.0 mi North 3.5 mph - N/A   Scattered Clouds
7:53 AM 75.0 °F - 72.0 °F 90% 30.06 in 7.0 mi Calm Calm - N/A   Scattered Clouds
9:53 AM 80.1 °F 85.1 °F 75.0 °F 85% 30.06 in 10.0 mi West 4.6 mph - N/A   Clear
10:53 AM 84.0 °F 92.6 °F 75.9 °F 76% 30.06 in 10.0 mi NW 8.1 mph - N/A   Mostly Cloudy
11:13 AM 84.9 °F 94.1 °F 75.9 °F 74% 30.07 in 10.0 mi NNW 6.9 mph - N/A   Mostly Cloudy
11:53 AM 86.0 °F 96.0 °F 75.9 °F 72% 30.04 in 10.0 mi Variable 4.6 mph - N/A   Mostly Cloudy
12:53 PM 88.0 °F 97.5 °F 75.0 °F 65% 30.03 in 10.0 mi WNW 8.1 mph - N/A   Partly Cloudy
1:53 PM 89.1 °F 98.0 °F 73.9 °F 61% 30.02 in 10.0 mi WNW 8.1 mph - N/A   Partly Cloudy
2:24 PM 90.0 °F 97.9 °F 73.0 °F 57% 30.03 in 10.0 mi Variable 3.5 mph - N/A Thunderstorm Clear
2:39 PM 89.1 °F 96.0 °F 72.0 °F 57% 30.03 in 10.0 mi WNW 6.9 mph - N/A   Scattered Clouds
2:53 PM 89.1 °F 96.0 °F 72.0 °F 57% 30.00 in 10.0 mi West 6.9 mph - N/A   Mostly Cloudy
3:53 PM 80.1 °F 83.8 °F 72.0 °F 76% 30.00 in 10.0 mi SSW 18.4 mph 25.3 mph N/A Thunderstorm Mostly Cloudy
4:09 PM 79.0 °F - 72.0 °F 79% 30.02 in 10.0 mi SW 11.5 mph 20.7 mph N/A Thunderstorm Thunderstorm
4:29 PM 79.0 °F - 72.0 °F 79% 30.02 in 10.0 mi SSW 10.4 mph - N/A Thunderstorm Mostly Cloudy
4:53 PM 77.0 °F - 72.0 °F 84% 30.03 in 10.0 mi SSE 5.8 mph - N/A Thunderstorm Scattered Clouds
5:29 PM 75.9 °F - 73.0 °F 91% 30.03 in 4.0 mi Calm Calm - 0.03 in Rain Light Rain
5:46 PM 75.9 °F - 73.0 °F 91% 30.02 in 4.0 mi SW 3.5 mph - 0.05 in Rain , Thunderstorm Light Rain
5:53 PM 75.9 °F - 73.0 °F 91% 30.01 in 3.0 mi West 3.5 mph - 0.06 in Rain , Thunderstorm Rain
6:01 PM 75.9 °F - 73.9 °F 94% 30.04 in 5.0 mi WNW 4.6 mph - 0.01 in Rain Light Rain
6:19 PM 75.9 °F - 73.9 °F 94% 30.04 in 4.0 mi WNW 5.8 mph - 0.04 in Rain , Thunderstorm Rain
6:34 PM 75.9 °F - 73.0 °F 91% 30.03 in 4.0 mi WNW 6.9 mph - 0.07 in Rain , Thunderstorm Thunderstorms and Rain
7:12 PM 73.9 °F - 72.0 °F 93% 30.03 in 8.0 mi WNW 10.4 mph - 0.01 in Rain , Thunderstorm Light Rain
7:27 PM 73.9 °F - 71.1 °F 91% 30.02 in 10.0 mi NW 12.7 mph - 0.02 in Rain Light Rain
7:53 PM 73.9 °F - 72.0 °F 93% 30.00 in 10.0 mi North 8.1 mph - 0.03 in Rain Light Rain
8:53 PM 73.9 °F - 71.1 °F 91% 30.00 in 10.0 mi NE 4.6 mph - 0.01 in   Clear
9:53 PM 73.9 °F - 72.0 °F 93% 30.01 in 10.0 mi ENE 3.5 mph - N/A   Clear
10:53 PM 73.0 °F - 72.0 °F 96% 30.01 in 9.0 mi SSW 3.5 mph - N/A   Clear
11:53 PM 73.0 °F - 72.0 °F 96% 30.01 in 8.0 mi South 4.6 mph - N/A   Scattered Clouds